| time (UTC) | temp C | wind direction | speed KPH | gust KPH | rain 1hr cm | rain 24hr cm | rain mn cm | humidity % | barometer mb |
| 20260504214823 | 18 | 200 | 12.9 | 33.8 | 0.00 | 0.00 | 0.00 | 57 | 1010.5 |
| 20260504214314 | 18 | 209 | 16.1 | 33.8 | 0.00 | 0.00 | 0.00 | 57 | 1010.5 |
| 20260504213828 | 18 | 288 | 9.7 | 30.6 | 0.00 | 0.00 | 0.00 | 56 | 1010.6 |
| 20260504213319 | 18 | 217 | 14.5 | 35.4 | 0.00 | 0.00 | 0.00 | 55 | 1010.7 |
| 20260504212831 | 18 | 215 | 17.7 | 35.4 | 0.00 | 0.00 | 0.00 | 55 | 1010.6 |
| 20260504212323 | 18 | 212 | 11.3 | 33.8 | 0.00 | 0.00 | 0.00 | 56 | 1010.6 |
| 20260504211836 | 18 | 157 | 16.1 | 30.6 | 0.00 | 0.00 | 0.00 | 56 | 1010.5 |
| 20260504211329 | 18 | 194 | 12.9 | 27.4 | 0.00 | 0.00 | 0.00 | 56 | 1010.6 |
| 20260504210821 | 18 | 178 | 14.5 | 27.4 | 0.00 | 0.00 | 0.00 | 56 | 1010.5 |
| 20260504210316 | 18 | 95 | 11.3 | 35.4 | 0.00 | 0.00 | 0.00 | 57 | 1010.5 |
| 20260504205828 | 18 | 178 | 14.5 | 35.4 | 0.00 | 0.00 | 0.00 | 56 | 1010.4 |
| 20260504205342 | 18 | 124 | 12.9 | 33.8 | 0.00 | 0.00 | 0.00 | 56 | 1010.4 |
| 20260504204832 | 18 | 150 | 11.3 | 27.4 | 0.00 | 0.00 | 0.00 | 58 | 1010.4 |
| 20260504204323 | 18 | 134 | 12.9 | 27.4 | 0.00 | 0.00 | 0.00 | 58 | 1010.5 |
| 20260504203834 | 18 | 218 | 11.3 | 29.0 | 0.00 | 0.00 | 0.00 | 60 | 1010.4 |
| 20260504203327 | 17 | 138 | 12.9 | 29.0 | 0.00 | 0.00 | 0.00 | 63 | 1010.4 |
| 20260504202821 | 17 | 205 | 9.7 | 25.7 | 0.00 | 0.00 | 0.00 | 64 | 1010.5 |
| 20260504202332 | 17 | 143 | 9.7 | 19.3 | 0.00 | 0.00 | 0.00 | 63 | 1010.6 |
| 20260504201824 | 18 | 198 | 9.7 | 25.7 | 0.00 | 0.00 | 0.00 | 62 | 1010.5 |
| 20260504201319 | 18 | 168 | 12.9 | 25.7 | 0.00 | 0.00 | 0.00 | 62 | 1010.6 |
| 20260504200851 | 17 | 131 | 9.7 | 29.0 | 0.00 | 0.00 | 0.00 | 63 | 1010.6 |
| 20260504200321 | 17 | 157 | 12.9 | 29.0 | 0.00 | 0.00 | 0.00 | 63 | 1010.7 |
| 20260504195812 | 17 | 262 | 16.1 | 29.0 | 0.00 | 0.00 | 0.00 | 61 | 1010.7 |
| 20260504195328 | 18 | 165 | 11.3 | 29.0 | 0.00 | 0.00 | 0.00 | 61 | 1010.8 |
| 20260504194331 | 18 | 181 | 14.5 | 35.4 | 0.00 | 0.00 | 0.00 | 59 | 1010.8 |
| 20260504193826 | 19 | 165 | 14.5 | 22.5 | 0.00 | 0.00 | 0.00 | 56 | 1010.8 |
| 20260504193324 | 20 | 184 | 11.3 | 24.1 | 0.00 | 0.00 | 0.00 | 55 | 1010.8 |
| 20260504192839 | 20 | 169 | 11.3 | 32.2 | 0.00 | 0.00 | 0.00 | 53 | 1011.0 |
| 20260504191822 | 20 | 179 | 11.3 | 25.7 | 0.00 | 0.00 | 0.00 | 52 | 1011.0 |
| 20260504191337 | 20 | 184 | 8.0 | 29.0 | 0.00 | 0.00 | 0.00 | 52 | 1011.2 |
| 20260504190827 | 20 | 238 | 6.4 | 29.0 | 0.00 | 0.00 | 0.00 | 55 | 1011.3 |
| 20260504190318 | 20 | 159 | 9.7 | 17.7 | 0.00 | 0.00 | 0.00 | 56 | 1011.3 |
| 20260504185830 | 20 | 145 | 11.3 | 27.4 | 0.00 | 0.00 | 0.00 | 55 | 1011.4 |
| 20260504185321 | 21 | 161 | 11.3 | 24.1 | 0.00 | 0.00 | 0.00 | 54 | 1011.5 |
| 20260504184813 | 20 | 134 | 9.7 | 25.7 | 0.00 | 0.00 | 0.00 | 54 | 1011.5 |
| 20260504184331 | 20 | 139 | 6.4 | 25.7 | 0.00 | 0.00 | 0.00 | 56 | 1011.6 |
| 20260504183822 | 20 | 202 | 11.3 | 25.7 | 0.00 | 0.00 | 0.00 | 56 | 1011.7 |
| 20260504183314 | 20 | 181 | 9.7 | 20.9 | 0.00 | 0.00 | 0.00 | 56 | 1011.7 |
| 20260504182825 | 20 | 151 | 11.3 | 30.6 | 0.00 | 0.00 | 0.00 | 56 | 1011.8 |
| 20260504182337 | 21 | 171 | 12.9 | 30.6 | 0.00 | 0.00 | 0.00 | 54 | 1011.9 |
| 20260504181811 | 20 | 234 | 9.7 | 24.1 | 0.00 | 0.00 | 0.00 | 56 | 1011.8 |
| 20260504181325 | 20 | 186 | 11.3 | 22.5 | 0.00 | 0.00 | 0.00 | 54 | 1011.9 |
| 20260504180817 | 20 | 119 | 8.0 | 20.9 | 0.00 | 0.00 | 0.00 | 54 | 1012.0 |
| 20260504180314 | 20 | 183 | 6.4 | 20.9 | 0.00 | 0.00 | 0.00 | 55 | 1012.1 |
| 20260504175829 | 21 | 189 | 12.9 | 20.9 | 0.00 | 0.00 | 0.00 | 53 | 1012.1 |
| 20260504175320 | 21 | 143 | 12.9 | 20.9 | 0.00 | 0.00 | 0.00 | 51 | 1012.0 |
| 20260504174854 | 21 | 186 | 6.4 | 25.7 | 0.00 | 0.00 | 0.00 | 51 | 1012.0 |
| 20260504174344 | 21 | 196 | 11.3 | 25.7 | 0.00 | 0.00 | 0.00 | 49 | 1012.2 |
| 20260504173818 | 22 | 172 | 6.4 | 25.7 | 0.00 | 0.00 | 0.00 | 49 | 1012.3 |
| 20260504173329 | 22 | 169 | 11.3 | 24.1 | 0.00 | 0.00 | 0.00 | 44 | 1012.3 |
| 20260504172821 | 22 | 175 | 6.4 | 17.7 | 0.00 | 0.00 | 0.00 | 46 | 1012.2 |
| 20260504172355 | 22 | 148 | 6.4 | 17.7 | 0.00 | 0.00 | 0.00 | 46 | 1012.4 |
| 20260504171825 | 23 | 171 | 8.0 | 25.7 | 0.00 | 0.00 | 0.00 | 30 | 1012.5 |
| 20260504171320 | 23 | 263 | 6.4 | 17.7 | 0.00 | 0.00 | 0.00 | 29 | 1012.5 |
| 20260504170833 | 23 | 167 | 4.8 | 16.1 | 0.00 | 0.00 | 0.00 | 31 | 1012.5 |
| 20260504170322 | 23 | 261 | 3.2 | 24.1 | 0.00 | 0.00 | 0.00 | 30 | 1012.6 |
| 20260504160324 | 22 | 294 | 9.7 | 22.5 | 0.00 | 0.00 | 0.00 | 32 | 1013.3 |
| 20260504150817 | 20 | 209 | 6.4 | 27.4 | 0.00 | 0.00 | 0.00 | 37 | 1013.8 |
| 20260504150329 | 20 | 233 | 12.9 | 27.4 | 0.00 | 0.00 | 0.00 | 36 | 1013.8 |
| 20260504141319 | 18 | 228 | 9.7 | 29.0 | 0.00 | 0.00 | 0.00 | 38 | 1014.2 |
| 20260504140831 | 18 | 263 | 9.7 | 29.0 | 0.00 | 0.00 | 0.00 | 37 | 1014.3 |
| 20260504140322 | 18 | 244 | 11.3 | 20.9 | 0.00 | 0.00 | 0.00 | 39 | 1014.2 |
| 20260504130325 | 15 | 219 | 8.0 | 16.1 | 0.00 | 0.00 | 0.00 | 54 | 1014.8 |
| 20260504110333 | 10 | 247 | 4.8 | 19.3 | 0.00 | 0.00 | 0.00 | 70 | 1015.7 |
| 20260504100318 | 9 | 241 | 8.0 | 24.1 | 0.00 | 0.00 | 0.00 | 66 | 1015.4 |
| 20260504081813 | 9 | 215 | 6.4 | 14.5 | 0.00 | 0.00 | 0.00 | 58 | 1015.2 |
| 20260504081348 | 8 | 250 | 6.4 | 14.5 | 0.00 | 0.00 | 0.00 | 58 | 1015.2 |
| 20260504080823 | 8 | 231 | 6.4 | 12.9 | 0.00 | 0.00 | 0.00 | 58 | 1015.1 |
| 20260504080334 | 8 | 257 | 4.8 | 12.9 | 0.00 | 0.00 | 0.00 | 58 | 1015.1 |
| 20260504070317 | 8 | 250 | 8.0 | 12.9 | 0.00 | 0.00 | 0.00 | 57 | 1014.8 |
| 20260504050317 | 10 | 265 | 4.8 | 11.3 | 0.00 | 0.00 | 0.00 | 51 | 1014.6 |
| 20260504045829 | 10 | 261 | 4.8 | 9.7 | 0.00 | 0.00 | 0.00 | 50 | 1014.5 |
| 20260504045321 | 10 | 240 | 6.4 | 12.9 | 0.00 | 0.00 | 0.00 | 50 | 1014.4 |
| 20260504044816 | 10 | 245 | 6.4 | 14.5 | 0.00 | 0.00 | 0.00 | 50 | 1014.4 |
| 20260504044326 | 10 | 232 | 8.0 | 14.5 | 0.00 | 0.00 | 0.00 | 50 | 1014.4 |
| 20260504043821 | 10 | 254 | 6.4 | 14.5 | 0.00 | 0.00 | 0.00 | 50 | 1014.3 |
| 20260504043316 | 10 | 212 | 6.4 | 12.9 | 0.00 | 0.00 | 0.00 | 50 | 1014.3 |
| 20260504042848 | 10 | 211 | 4.8 | 11.3 | 0.00 | 0.00 | 0.00 | 50 | 1014.3 |
| 20260504042321 | 10 | 241 | 4.8 | 9.7 | 0.00 | 0.00 | 0.00 | 49 | 1014.2 |
| 20260504041816 | 10 | 294 | 6.4 | 14.5 | 0.00 | 0.00 | 0.00 | 49 | 1014.1 |
| 20260504041327 | 10 | 242 | 4.8 | 14.5 | 0.00 | 0.00 | 0.00 | 49 | 1014.2 |
| 20260504040842 | 10 | 269 | 6.4 | 16.1 | 0.00 | 0.00 | 0.00 | 49 | 1014.2 |
| 20260504040312 | 10 | 254 | 8.0 | 11.3 | 0.00 | 0.00 | 0.00 | 49 | 1014.1 |
| 20260504035826 | 10 | 226 | 4.8 | 11.3 | 0.00 | 0.00 | 0.00 | 49 | 1014.0 |
| 20260504035320 | 10 | 255 | 4.8 | 11.3 | 0.00 | 0.00 | 0.00 | 49 | 1014.1 |
| 20260504034815 | 10 | 254 | 4.8 | 11.3 | 0.00 | 0.00 | 0.00 | 49 | 1014.0 |
| 20260504034326 | 10 | 254 | 4.8 | 8.0 | 0.00 | 0.00 | 0.00 | 48 | 1013.9 |
| 20260504033822 | 10 | 259 | 4.8 | 9.7 | 0.00 | 0.00 | 0.00 | 48 | 1013.9 |
| 20260504033334 | 10 | 223 | 4.8 | 11.3 | 0.00 | 0.00 | 0.00 | 48 | 1013.8 |
| 20260504032826 | 10 | 239 | 4.8 | 12.9 | 0.00 | 0.00 | 0.00 | 48 | 1013.9 |
| 20260504032337 | 10 | 230 | 6.4 | 12.9 | 0.00 | 0.00 | 0.00 | 48 | 1013.9 |
| 20260504031831 | 10 | 232 | 3.2 | 11.3 | 0.00 | 0.00 | 0.00 | 47 | 1013.9 |
| 20260504031322 | 10 | 242 | 4.8 | 12.9 | 0.00 | 0.00 | 0.00 | 47 | 1013.8 |
| 20260504030854 | 10 | 249 | 6.4 | 12.9 | 0.00 | 0.00 | 0.00 | 47 | 1013.9 |
| 20260504030324 | 10 | 245 | 3.2 | 11.3 | 0.00 | 0.00 | 0.00 | 47 | 1013.9 |
| 20260504025816 | 11 | 213 | 3.2 | 8.0 | 0.00 | 0.00 | 0.00 | 47 | 1013.8 |
| 20260504025326 | 11 | 234 | 3.2 | 8.0 | 0.00 | 0.00 | 0.00 | 47 | 1013.8 |
| 20260504024822 | 11 | 221 | 3.2 | 8.0 | 0.00 | 0.00 | 0.00 | 47 | 1013.8 |
| 20260504024333 | 11 | 264 | 4.8 | 8.0 | 0.00 | 0.00 | 0.00 | 47 | 1013.7 |
| 20260504023825 | 11 | 251 | 3.2 | 8.0 | 0.00 | 0.00 | 0.00 | 46 | 1013.8 |
| 20260504023317 | 11 | 265 | 3.2 | 8.0 | 0.00 | 0.00 | 0.00 | 46 | 1013.8 |
| 20260504022828 | 11 | 252 | 3.2 | 6.4 | 0.00 | 0.00 | 0.00 | 46 | 1013.8 |
| 20260504022319 | 11 | 287 | 3.2 | 8.0 | 0.00 | 0.00 | 0.00 | 46 | 1013.8 |
| 20260504021833 | 11 | 234 | 3.2 | 11.3 | 0.00 | 0.00 | 0.00 | 46 | 1013.7 |
| 20260504021324 | 11 | 265 | 4.8 | 9.7 | 0.00 | 0.00 | 0.00 | 46 | 1013.8 |
| 20260504020823 | 11 | 254 | 4.8 | 8.0 | 0.00 | 0.00 | 0.00 | 46 | 1013.8 |
| 20260504020314 | 11 | 229 | 3.2 | 9.7 | 0.00 | 0.00 | 0.00 | 45 | 1013.8 |
| 20260504015829 | 11 | 257 | 4.8 | 9.7 | 0.00 | 0.00 | 0.00 | 45 | 1013.8 |
| 20260504015320 | 11 | 246 | 3.2 | 8.0 | 0.00 | 0.00 | 0.00 | 45 | 1013.8 |
| 20260504014851 | 11 | 232 | 3.2 | 4.8 | 0.00 | 0.00 | 0.00 | 45 | 1013.8 |
| 20260504014325 | 11 | 234 | 3.2 | 6.4 | 0.00 | 0.00 | 0.00 | 45 | 1013.7 |
| 20260504013820 | 11 | 204 | 3.2 | 6.4 | 0.00 | 0.00 | 0.00 | 44 | 1013.6 |
| 20260504013331 | 11 | 227 | 3.2 | 4.8 | 0.00 | 0.00 | 0.00 | 43 | 1013.6 |
| 20260504012826 | 12 | 226 | 1.6 | 4.8 | 0.00 | 0.00 | 0.00 | 43 | 1013.5 |
| 20260504012317 | 12 | 234 | 1.6 | 4.8 | 0.00 | 0.00 | 0.00 | 43 | 1013.4 |
| 20260504011848 | 12 | 246 | 1.6 | 6.4 | 0.00 | 0.00 | 0.00 | 43 | 1013.4 |
| 20260504011318 | 12 | 232 | 1.6 | 6.4 | 0.00 | 0.00 | 0.00 | 42 | 1013.3 |
| 20260504010833 | 12 | 180 | 1.6 | 4.8 | 0.00 | 0.00 | 0.00 | 42 | 1013.2 |
| 20260504010324 | 12 | 222 | 1.6 | 4.8 | 0.00 | 0.00 | 0.00 | 41 | 1013.1 |
| 20260504005819 | 12 | 225 | 1.6 | 4.8 | 0.00 | 0.00 | 0.00 | 41 | 1013.1 |
| 20260504005350 | 12 | 229 | 1.6 | 3.2 | 0.00 | 0.00 | 0.00 | 40 | 1013.0 |
| 20260504004821 | 12 | 229 | 1.6 | 3.2 | 0.00 | 0.00 | 0.00 | 39 | 1013.0 |
| 20260504004332 | 13 | 229 | 1.6 | 3.2 | 0.00 | 0.00 | 0.00 | 39 | 1012.9 |
| 20260504003828 | 13 | 229 | 1.6 | 3.2 | 0.00 | 0.00 | 0.00 | 39 | 1012.8 |
| 20260504003339 | 13 | 229 | 1.6 | 3.2 | 0.00 | 0.00 | 0.00 | 38 | 1012.8 |
| 20260504002829 | 13 | 234 | 1.6 | 4.8 | 0.00 | 0.00 | 0.00 | 37 | 1012.7 |
| 20260504002321 | 13 | 236 | 1.6 | 6.4 | 0.00 | 0.00 | 0.00 | 36 | 1012.7 |
| 20260504001832 | 13 | 215 | 3.2 | 9.7 | 0.00 | 0.00 | 0.00 | 36 | 1012.6 |
| 20260504001345 | 13 | 232 | 1.6 | 9.7 | 0.00 | 0.00 | 0.00 | 35 | 1012.5 |
| 20260504000815 | 13 | 240 | 1.6 | 8.0 | 0.00 | 0.00 | 0.00 | 34 | 1012.5 |
| 20260504000346 | 14 | 266 | 3.2 | 8.0 | 0.00 | 0.00 | 0.00 | 34 | 1012.4 |
| 20260503235816 | 14 | 240 | 4.8 | 11.3 | 0.00 | 0.00 | 0.00 | 34 | 1012.3 |
| 20260503235348 | 14 | 276 | 4.8 | 9.7 | 0.00 | 0.00 | 0.00 | 33 | 1012.2 |
| 20260503234818 | 14 | 211 | 4.8 | 12.9 | 0.00 | 0.00 | 0.00 | 33 | 1012.2 |
| 20260503234314 | 15 | 239 | 6.4 | 12.9 | 0.00 | 0.00 | 0.00 | 32 | 1012.1 |
| 20260503233828 | 15 | 274 | 6.4 | 14.5 | 0.00 | 0.00 | 0.00 | 32 | 1012.1 |
| 20260503233320 | 15 | 253 | 11.3 | 17.7 | 0.00 | 0.00 | 0.00 | 31 | 1012.0 |
| 20260503232815 | 15 | 261 | 9.7 | 16.1 | 0.00 | 0.00 | 0.00 | 31 | 1012.0 |
| 20260503232326 | 15 | 281 | 8.0 | 12.9 | 0.00 | 0.00 | 0.00 | 31 | 1012.1 |
| 20260503231817 | 15 | 272 | 4.8 | 12.9 | 0.00 | 0.00 | 0.00 | 31 | 1012.2 |
| 20260503231328 | 15 | 261 | 4.8 | 12.9 | 0.00 | 0.00 | 0.00 | 30 | 1012.1 |
| 20260503230840 | 15 | 302 | 6.4 | 12.9 | 0.00 | 0.00 | 0.00 | 31 | 1012.1 |
| 20260503230315 | 15 | 309 | 6.4 | 16.1 | 0.00 | 0.00 | 0.00 | 30 | 1012.0 |
| 20260503225826 | 15 | 295 | 6.4 | 19.3 | 0.00 | 0.00 | 0.00 | 30 | 1011.9 |
| 20260503225318 | 15 | 275 | 4.8 | 17.7 | 0.00 | 0.00 | 0.00 | 30 | 1011.8 |
| 20260503224829 | 16 | 285 | 8.0 | 22.5 | 0.00 | 0.00 | 0.00 | 30 | 1011.8 |
| 20260503224321 | 16 | 5 | 3.2 | 22.5 | 0.00 | 0.00 | 0.00 | 30 | 1011.8 |
| 20260503223833 | 16 | 313 | 6.4 | 25.7 | 0.00 | 0.00 | 0.00 | 29 | 1011.8 |
| 20260503223326 | 16 | 301 | 9.7 | 25.7 | 0.00 | 0.00 | 0.00 | 28 | 1011.8 |
| 20260503222818 | 16 | 294 | 6.4 | 25.7 | 0.00 | 0.00 | 0.00 | 28 | 1011.8 |
| 20260503222351 | 16 | 314 | 6.4 | 17.7 | 0.00 | 0.00 | 0.00 | 29 | 1011.7 |
| 20260503221825 | 16 | 288 | 8.0 | 17.7 | 0.00 | 0.00 | 0.00 | 29 | 1011.7 |
| 20260503221324 | 16 | 345 | 8.0 | 17.7 | 0.00 | 0.00 | 0.00 | 29 | 1011.6 |
| 20260503220815 | 16 | 307 | 8.0 | 30.6 | 0.00 | 0.00 | 0.00 | 30 | 1011.7 |
| 20260503220327 | 16 | 259 | 4.8 | 30.6 | 0.00 | 0.00 | 0.00 | 29 | 1011.8 |
| 20260503215839 | 16 | 271 | 11.3 | 29.0 | 0.00 | 0.00 | 0.00 | 28 | 1011.7 |
| 20260503215333 | 16 | 277 | 12.9 | 30.6 | 0.00 | 0.00 | 0.00 | 28 | 1011.7 |